Weather in Velvary

Czech Republic     50°16′51″N   14°14′10″E
temp.,
°C
wind,
m/s
gust,
m/s
humid.,
%
clouds,
%
prec.,
mm/h
press.,
hPa
HPBL,
m
10 may, mon
mon1023:00+12ese489098 0.0 1011145
02:00+10e3890100 0.0 1010162
05:00+9ese359398 0.0 101090
08:00+13se357897 0.0 1010382
11:00+18se346497 0.0 1010761
14:00+22se34555 0.0 10101038
17:00+24se45564 0.0 10091330
20:00+18ese358039 0.0 100994
11 may, tue
tue1123:00+14e410936 0.0 1009199
02:00+12e3996100 0.0 1008194
05:00+11e499657 0.0 1006206
08:00+15se458296 0.0 1007418
11:00+19se226751 0.0 1006883
14:00+21wsw2265100 0.0 1006994
17:00+22nnw216698 0.0 1005806
20:00+18n2385100 0.4 100436
12 may, wed
wed1223:00+15nne3694100 0.9 1004131
02:00+13nnw469864 0.9 1004149
05:00+12wnw3698100 0.0 1005225
08:00+13nw3495100 0.0 1006345
11:00+13n3494100 0.0 1006422
14:00+13nnw459197 0.1 1005415
17:00+15nnw568690 0.3 1004549
20:00+12nnw5997100 3.4 1004474
13 may, thu
thu1323:00+11wnw4699100 29.1 1004241
02:00+10nw4897100 30.9 1003477
05:00+10nw3698100 0.0 1002336
08:00+11nnw3698100 0.2 1001336
11:00+12n3495100 0.3 1001450
14:00+13sw3390100 0.4 1001183
17:00+12sw3593100 0.4 1001228
20:00+11wsw2394100 1.5 1002152
14 may, fri
fri1423:00+10wsw239577 0.1 100380
02:00+9w239690 0.1 100472
05:00+10wnw369492 0.0 1004196
08:00+11wnw4590100 0.0 1005486
11:00+10wnw4694100 0.8 1007401
14:00+10w3695100 2.6 1009338
17:00+10w3695100 0.4 1010332
20:00+10w2294100 0.6 101161